Weather History for Bowling Green, KY

Change the Weather History Date:

Monday, January 21, 2013

  Actual Average Record
Temperature  
Mean Temperature 30 °F 36 °F  
Max Temperature 36 °F 45 °F 71 °F (1916)
Min Temperature 23 °F 26 °F -12 °F (1985)
Degree Days  
Heating Degree Days 35 29  
Month to date heating degree days 516 622  
Since 1 July heating degree days 1941 2206  
Cooling Degree Days 0 0  
Month to date cooling degree days 0 0  
Year to date cooling degree days 0 0  
Moisture  
Dew Point 11 °F    
Average Humidity 50    
Maximum Humidity 68    
Minimum Humidity 32    
Precipitation  
Precipitation 0.00 in 0.11 in 2.96 in (1959)
Month to date precipitation 3.72 2.40  
Year to date precipitation 3.72 2.40  
Snow  
Snow 0.00 in 0.10 in 2.00 in (1979)
Month to date snowfall 0.1 2.0  
Since 1 July snowfall 0.1 3.2  
Snow Depth 0.00 in    
Sea Level Pressure  
Sea Level Pressure 30.27 in    
Wind  
Wind Speed 7 mph (NW)    
Max Wind Speed 20 mph    
Max Gust Speed 25 mph    
Visibility 10 miles    
Events      
T = Trace of Precipitation, MM = Missing Value Source: NWS Daily Summary

Daily Weather History Graph

Daily Weather History Graph

Search for Another Location

Airport:

Trip Planner

Search our weather history database for the weather conditions in past years. The results will help you decide how hot, cold, wet, or windy it might be!

Date:

Astronomy

Jan. 21, 2013 Rise Set
Actual Time 6:55 AM CST 4:59 PM CST
Civil Twilight 6:27 AM CST 5:27 PM CST
Nautical Twilight 5:55 AM CST 5:58 PM CST
Astronomical Twilight 5:24 AM CST 6:29 PM CST
Moon 12:39 PM CST (1/21) 2:22 AM CST (1/21)
Length of Visible Light 10h 59m
Length of Day
10h 03m
Waxing Gibbous, 75% of the Moon is Illuminated
Jan 21
Waxing Gibbous
Jan 26
Full
Feb 3
Last Quarter
Feb 10
New
Feb 17
First Quarter

Hourly Weather History & Observations

Time (CST) Temp. Windchill Dew Point Humidity Pressure Visibility Wind Dir Wind Speed Gust Speed Precip Events Conditions
12:53 AM 30.0 °F - 15.1 °F 54% 30.22 in 10.0 mi Calm Calm - N/A   Clear
1:53 AM 28.0 °F - 15.1 °F 58% 30.22 in 10.0 mi Calm Calm - N/A   Clear
2:53 AM 28.0 °F - 17.1 °F 63% 30.21 in 10.0 mi Calm Calm - N/A   Partly Cloudy
3:53 AM 27.0 °F 23.0 °F 15.1 °F 61% 30.22 in 10.0 mi WNW 3.5 mph - N/A   Clear
4:53 AM 26.1 °F - 15.1 °F 63% 30.23 in 10.0 mi Calm Calm - N/A   Clear
5:53 AM 27.0 °F 21.6 °F 16.0 °F 63% 30.24 in 10.0 mi NW 4.6 mph - N/A   Clear
6:53 AM 24.1 °F 19.7 °F 16.0 °F 71% 30.26 in 10.0 mi WNW 3.5 mph - N/A   Clear
7:53 AM 27.0 °F 18.7 °F 18.0 °F 69% 30.28 in 10.0 mi WNW 8.1 mph - N/A   Clear
8:53 AM 28.9 °F 20.4 °F 18.0 °F 64% 30.30 in 10.0 mi WNW 9.2 mph - N/A   Clear
9:53 AM 30.9 °F 23.5 °F 17.1 °F 57% 30.31 in 10.0 mi WNW 8.1 mph - N/A   Partly Cloudy
10:53 AM 32.0 °F 24.8 °F 15.1 °F 50% 30.30 in 10.0 mi WNW 8.1 mph - N/A   Clear
11:53 AM 34.0 °F 25.0 °F 10.9 °F 38% 30.26 in 10.0 mi West 12.7 mph - N/A   Clear
12:53 PM 35.1 °F 27.4 °F 12.0 °F 39% 30.24 in 10.0 mi NW 10.4 mph 19.6 mph N/A   Clear
1:53 PM 36.0 °F 26.7 °F 10.9 °F 36% 30.25 in 10.0 mi West 15.0 mph 25.3 mph N/A   Clear
2:53 PM 35.1 °F 28.6 °F 8.1 °F 33% 30.25 in 10.0 mi WNW 8.1 mph 19.6 mph N/A   Clear
3:53 PM 33.1 °F 25.5 °F 8.1 °F 35% 30.26 in 10.0 mi NNW 9.2 mph - N/A   Clear
4:53 PM 30.0 °F 21.7 °F 6.1 °F 36% 30.27 in 10.0 mi NNW 9.2 mph - N/A   Clear
5:53 PM 28.0 °F 18.6 °F 6.1 °F 39% 30.29 in 10.0 mi NW 10.4 mph 16.1 mph N/A   Clear
6:53 PM 27.0 °F 18.7 °F 6.1 °F 41% 30.31 in 10.0 mi NW 8.1 mph - N/A   Clear
7:53 PM 25.0 °F 18.1 °F 7.0 °F 46% 30.32 in 10.0 mi NNW 5.8 mph - N/A   Clear
8:53 PM 25.0 °F 19.3 °F 6.1 °F 45% 30.33 in 10.0 mi NW 4.6 mph - N/A   Mostly Cloudy
9:53 PM 24.1 °F 15.2 °F 3.9 °F 42% 30.32 in 10.0 mi NNW 8.1 mph - N/A   Scattered Clouds
10:53 PM 23.0 °F 13.9 °F 6.1 °F 48% 30.34 in 10.0 mi NW 8.1 mph - N/A   Overcast
11:53 PM 23.0 °F 14.7 °F 5.0 °F 46% 30.34 in 10.0 mi NW 6.9 mph - N/A   Overcast